ASIASAT 6

Last updated on Sun Apr 12 2026 00:02:53 GMT+0000 (Coordinated Universal Time)

1 40141U 14052A 26101.85530553 -.00000360 00000+0 00000+0 0 9994 2 40141 0.0179 164.2978 0000857 202.0974 261.4999 1.00273101 42416
UTC large
Height (km)
Speed (km/s)
/
Latitude / Longitude
Inclination (degrees)
Orbital Period (minutes)
Azimuth
Elevation
Range (km)
Doppler Factor

Next 0 passes for location: London (51.5072 / 0.1276)

Sorry there are no passes over London.
ASIASAT 6